Regional Weather Roundup
Issued by NWS

Home | Current Version | Previous Version | Graphics & Text | Print | Product List | Glossary On
Versions: 1 2 3 4 5 6 7 8 9 10 11 12 13 14 15 16 17 18 19 20 21 22 23 24 25 26 27 28 29 30 31 32 33 34 35 36 37 38 39 40 41 42 43 44 45 46 47 48 49 50
000
ASUS43 KTOP 290008
RWRKS

WEATHER ROUNDUP FOR KANSAS
NATIONAL WEATHER SERVICE GOODLAND KS
600 PM CST FRI NOV 28 2014

NOTE:  "FAIR" INDICATES FEW OR NO CLOUDS BELOW 12,000 FEET WITH NO
SIGNIFICANT WEATHER AND/OR OBSTRUCTIONS TO VISIBILITY.

KSZ001>006-013>018-027>032-041>047-290100-
NORTHWEST KANSAS

CITY           SKY/WX    TMP DP  RH WIND       PRES   REMARKS
GOODLAND       CLOUDY    48  15  26 CALM      29.77S
6HR MIN TEMP:  48; 6HR MAX TEMP:  80;

HAYS           PTCLDY    61  21  21 S7        29.74R
HILL CITY      MOCLDY    57  20  23 CALM      29.73R
6HR MIN TEMP:  56; 6HR MAX TEMP:  80;

RUSSELL        PTCLDY    55  32  41 S13       29.73R
6HR MIN TEMP:  55; 6HR MAX TEMP:  74;

$$

KSZ061>065-074>080-084>089-290100-
SOUTHWEST KANSAS

CITY           SKY/WX    TMP DP  RH WIND       PRES   REMARKS
DODGE CITY     PTCLDY    56  26  31 S12       29.79S
6HR MIN TEMP:  56; 6HR MAX TEMP:  78;

ELKHART          N/A     66  14  13 SW10        N/A
GARDEN CITY    PTCLDY    62  20  19 S8        29.78S
6HR MIN TEMP:  58; 6HR MAX TEMP:  77;

GREAT BEND     CLEAR     55  28  35 S12       29.76R
LIBERAL        MOCLDY    64  25  22 E6        29.80F
PRATT          CLEAR     50  32  50 S9        29.81R
$$

KSZ066>073-081>083-090>101-290100-
SOUTHEAST KANSAS

CITY           SKY/WX    TMP DP  RH WIND       PRES   REMARKS
CHANUTE        PTCLDY    54  36  50 S10       29.85S
6HR MIN TEMP:  54; 6HR MAX TEMP:  63;

COFFEYVILLE    PTCLDY    56  39  53 S10       29.87R
6HR MIN TEMP:  56; 6HR MAX TEMP:  64;

HUTCHINSON     MOCLDY    51  34  52 S9        29.79S
6HR MIN TEMP:  51; 6HR MAX TEMP:  64;

MEDICINE LODGE   N/A     54  36  50 SE6       29.81R
NEWTON         CLOUDY    54  34  47 S13       29.82R
PARSONS        PTCLDY    55  38  52 S6        29.87R
6HR MIN TEMP:  55; 6HR MAX TEMP:  64;

WICHITA INTL   MOCLDY    55  36  48 S13       29.81S
6HR MIN TEMP:  55; 6HR MAX TEMP:  62;

WICHITA JABRA  MOCLDY    56  36  47 S18       29.80S
6HR MIN TEMP:  55; 6HR MAX TEMP:  61;

WICHITA MCCONL PTCLDY    55  36  49 S10       29.82S
WINFIELD       PTCLDY    55  39  54 S10       29.85R
6HR MIN TEMP:  55; 6HR MAX TEMP:  64;

$$

KSZ007>012-019>026-033>040-048>060-102>105-290100-
NORTHEAST KANSAS

CITY           SKY/WX    TMP DP  RH WIND       PRES   REMARKS
CONCORDIA      CLOUDY    59  34  39 S13G22    29.71S
6HR MIN TEMP:  54; 6HR MAX TEMP:  66;

EMPORIA        MOCLDY    54  35  48 S8        29.80S
6HR MIN TEMP:  52; 6HR MAX TEMP:  65;

LAWRENCE       PTCLDY    53  34  48 S10       29.79S
6HR MIN TEMP:  52; 6HR MAX TEMP:  63;

MANHATTAN      CLOUDY    55  34  45 SW10      29.75S
6HR MIN TEMP:  55; 6HR MAX TEMP:  66;

MARYSVILLE     CLOUDY    52  34  50 S7        29.71F
OLATHE IND     PTCLDY    51  35  54 S10       29.80F
6HR MIN TEMP:  48; 6HR MAX TEMP:  60;

OLATHE EXE     PTCLDY    53  34  48 S12       29.80F
6HR MIN TEMP:  50; 6HR MAX TEMP:  59;

SALINA         MOCLDY    55  35  47 S9        29.76R
6HR MIN TEMP:  54; 6HR MAX TEMP:  70;

TOPEKA BILLARD MOCLDY    57  34  41 S7        29.78R
6HR MIN TEMP:  54; 6HR MAX TEMP:  67;

TOPEKA FORBES  PTCLDY    56  34  43 S10       29.78R
6HR MIN TEMP:  55; 6HR MAX TEMP:  67;

$$



USA.gov is the U.S. government's official web portal to all federal, state and local government web resources and services.